Tracking 29892 objects as of 21-Nov-2024
HD Live streaming from Space Station
objects crossing your sky now

STARLINK-31074

Track STARLINK-31074 now!
10-day predictions
STARLINK-31074 is classified as:


NORAD ID: 58601
Int'l Code: 2023-200N
Perigee: 564.6 km
Apogee: 567.8 km
Inclination: 43.0 °
Period: 95.8 minutes
Semi major axis: 6937 km
RCS: Unknown
Launch date: December 19, 2023
Source: United States (US)
Launch site: AIR FORCE EASTERN TEST RANGE (AFETR)
Your satellite tracking list
Your tracking list is empty




NASA's NSSDC Master Catalog

Two Line Element Set (TLE):
1 58601U 23200N   24326.09909597  .00001403  00000-0  11893-3 0  9995
2 58601  43.0061 223.6438 0002304 264.7898  95.2682 15.02537655 52375
Source of the keplerian elements: AFSPC